Time,TemperatureF,DewpointF,PressureIn,WindDirection,WindDirectionDegrees,WindSpeedMPH,WindSpeedGustMPH,Humidity,HourlyPrecipIn,Conditions,Clouds,dailyrainin,SoftwareType,DateUTC
2013-05-05 00:02:00,66.8,30.8,29.52,SSW,199,25.0,31.0,26,0.00,,,0.00,Wunderground v.1.15,2013-05-05 07:02:00,
2013-05-05 00:08:00,66.8,29.8,29.52,SSW,192,25.0,31.0,25,0.00,,,0.00,Wunderground v.1.15,2013-05-05 07:08:00,
2013-05-05 00:14:00,66.7,29.7,29.52,SSW,200,25.0,27.0,25,0.00,,,0.00,Wunderground v.1.15,2013-05-05 07:14:00,
2013-05-05 00:20:00,66.6,29.6,29.52,South,178,25.0,25.0,25,0.00,,,0.00,Wunderground v.1.15,2013-05-05 07:20:00,
2013-05-05 00:26:00,66.5,29.6,29.52,South,190,25.0,25.0,25,0.00,,,0.00,Wunderground v.1.15,2013-05-05 07:26:00,
2013-05-05 00:32:00,66.5,29.6,29.52,SSW,195,25.0,26.0,25,0.00,,,0.00,Wunderground v.1.15,2013-05-05 07:32:00,
2013-05-05 00:38:00,66.4,28.5,29.52,SSW,195,25.0,29.0,24,0.00,,,0.00,Wunderground v.1.15,2013-05-05 07:38:00,
2013-05-05 00:44:00,66.2,28.3,29.52,South,190,26.0,27.0,24,0.00,,,0.00,Wunderground v.1.15,2013-05-05 07:44:00,
2013-05-05 00:50:00,66.1,28.2,29.52,South,189,26.0,27.0,24,0.00,,,0.00,Wunderground v.1.15,2013-05-05 07:50:00,
2013-05-05 00:56:00,66.2,28.3,29.52,SSW,195,26.0,31.0,24,0.00,,,0.00,Wunderground v.1.15,2013-05-05 07:56:00,
2013-05-05 01:02:00,66.1,28.2,29.52,SSW,196,26.0,34.0,24,0.00,,,0.00,Wunderground v.1.15,2013-05-05 08:02:00,
2013-05-05 01:08:00,65.6,28.8,29.52,SSW,198,28.0,34.0,25,0.00,,,0.00,Wunderground v.1.15,2013-05-05 08:08:00,
2013-05-05 01:14:00,65.2,28.5,29.53,SSW,210,28.0,31.0,25,0.00,,,0.00,Wunderground v.1.15,2013-05-05 08:14:00,
2013-05-05 01:20:00,65.0,29.2,29.53,SSW,207,29.0,29.0,26,0.00,,,0.00,Wunderground v.1.15,2013-05-05 08:20:00,
2013-05-05 01:26:00,64.7,29.0,29.53,SSW,199,29.0,29.0,26,0.00,,,0.00,Wunderground v.1.15,2013-05-05 08:26:00,
2013-05-05 01:32:00,64.5,28.8,29.53,South,191,28.0,33.0,26,0.00,,,0.00,Wunderground v.1.15,2013-05-05 08:32:00,
2013-05-05 01:38:00,64.2,28.6,29.53,South,183,29.0,33.0,26,0.00,,,0.00,Wunderground v.1.15,2013-05-05 08:38:00,
2013-05-05 01:44:00,64.1,28.5,29.53,South,171,29.0,38.0,26,0.00,,,0.00,Wunderground v.1.15,2013-05-05 08:44:00,
2013-05-05 01:50:00,64.0,28.4,29.52,SSW,196,27.0,27.0,26,0.00,,,0.00,Wunderground v.1.15,2013-05-05 08:50:00,
2013-05-05 01:56:00,63.7,28.1,29.52,SSW,194,27.0,32.0,26,0.00,,,0.00,Wunderground v.1.15,2013-05-05 08:56:00,
2013-05-05 02:02:00,63.5,28.0,29.52,SSW,194,27.0,28.0,26,0.00,,,0.00,Wunderground v.1.15,2013-05-05 09:02:00,
2013-05-05 02:08:00,63.3,28.7,29.53,SSW,195,28.0,32.0,27,0.00,,,0.00,Wunderground v.1.15,2013-05-05 09:08:00,
2013-05-05 02:14:00,63.1,28.5,29.53,SSW,202,29.0,33.0,27,0.00,,,0.00,Wunderground v.1.15,2013-05-05 09:14:00,
2013-05-05 02:20:00,63.0,28.5,29.52,SSW,201,30.0,31.0,27,0.00,,,0.00,Wunderground v.1.15,2013-05-05 09:20:00,
2013-05-05 02:26:00,62.9,28.4,29.52,South,191,31.0,37.0,27,0.00,,,0.00,Wunderground v.1.15,2013-05-05 09:26:00,
2013-05-05 02:32:00,62.8,28.3,29.52,South,188,32.0,38.0,27,0.00,,,0.00,Wunderground v.1.15,2013-05-05 09:32:00,
2013-05-05 02:38:00,62.6,28.1,29.52,SSW,210,30.0,38.0,27,0.00,,,0.00,Wunderground v.1.15,2013-05-05 09:38:00,
2013-05-05 02:44:00,62.5,28.0,29.53,SSW,192,29.0,30.0,27,0.00,,,0.00,Wunderground v.1.15,2013-05-05 09:44:00,
2013-05-05 02:50:00,62.3,27.9,29.53,South,186,30.0,31.0,27,0.00,,,0.00,Wunderground v.1.15,2013-05-05 09:50:00,
2013-05-05 02:56:00,62.4,27.0,29.53,South,190,31.0,35.0,26,0.00,,,0.00,Wunderground v.1.15,2013-05-05 09:56:00,
2013-05-05 03:02:00,62.5,27.1,29.52,South,180,32.0,39.0,26,0.00,,,0.00,Wunderground v.1.15,2013-05-05 10:02:00,
2013-05-05 03:08:00,62.3,26.9,29.53,SW,223,30.0,39.0,26,0.00,,,0.00,Wunderground v.1.15,2013-05-05 10:08:00,
2013-05-05 03:14:00,62.0,27.6,29.52,SSW,194,31.0,35.0,27,0.00,,,0.00,Wunderground v.1.15,2013-05-05 10:14:00,
2013-05-05 03:20:00,61.9,26.6,29.53,South,190,30.0,30.0,26,0.00,,,0.00,Wunderground v.1.15,2013-05-05 10:20:00,
2013-05-05 03:26:00,61.9,26.6,29.54,SSW,204,29.0,32.0,26,0.00,,,0.00,Wunderground v.1.15,2013-05-05 10:26:00,
2013-05-05 03:32:00,61.8,26.5,29.53,SSW,198,28.0,32.0,26,0.00,,,0.00,Wunderground v.1.15,2013-05-05 10:32:00,
2013-05-05 03:38:00,61.7,26.4,29.54,SSW,203,28.0,32.0,26,0.00,,,0.00,Wunderground v.1.15,2013-05-05 10:38:00,
2013-05-05 03:44:00,61.7,26.4,29.53,SSW,196,29.0,30.0,26,0.00,,,0.00,Wunderground v.1.15,2013-05-05 10:44:00,
2013-05-05 03:50:00,61.6,26.3,29.55,SW,223,28.0,30.0,26,0.00,,,0.00,Wunderground v.1.15,2013-05-05 10:50:00,
2013-05-05 03:56:00,61.7,26.4,29.55,SSW,198,26.0,30.0,26,0.00,,,0.00,Wunderground v.1.15,2013-05-05 10:56:00,
2013-05-05 04:02:00,61.6,26.3,29.55,SW,217,25.0,30.0,26,0.00,,,0.00,Wunderground v.1.15,2013-05-05 11:02:00,
2013-05-05 04:08:00,61.6,26.3,29.56,SSW,192,24.0,30.0,26,0.00,,,0.00,Wunderground v.1.15,2013-05-05 11:08:00,
2013-05-05 04:14:00,61.4,27.1,29.56,SW,236,19.0,22.0,27,0.00,,,0.00,Wunderground v.1.15,2013-05-05 11:14:00,
2013-05-05 04:20:00,60.9,27.5,29.57,WSW,250,16.0,16.0,28,0.00,,,0.00,Wunderground v.1.15,2013-05-05 11:20:00,
2013-05-05 04:26:00,60.3,27.9,29.57,WSW,242,13.0,16.0,29,0.00,,,0.00,Wunderground v.1.15,2013-05-05 11:26:00,
2013-05-05 07:34:00,59.0,32.7,29.64,South,188,16.0,16.0,37,0.00,,,0.00,Wunderground v.1.15,2013-05-05 14:34:00,
2013-05-05 07:40:00,59.3,33.0,29.64,South,182,15.0,17.0,37,0.00,,,0.00,Wunderground v.1.15,2013-05-05 14:40:00,
2013-05-05 07:46:00,59.4,33.1,29.64,South,186,14.0,22.0,37,0.00,,,0.00,Wunderground v.1.15,2013-05-05 14:46:00,
2013-05-05 07:52:00,59.6,33.3,29.64,South,186,17.0,22.0,37,0.00,,,0.00,Wunderground v.1.15,2013-05-05 14:52:00,
2013-05-05 07:58:00,59.6,33.3,29.64,South,191,19.0,22.0,37,0.00,,,0.00,Wunderground v.1.15,2013-05-05 14:58:00,
2013-05-05 08:04:00,60.0,32.9,29.65,SW,233,18.0,19.0,36,0.00,,,0.00,Wunderground v.1.15,2013-05-05 15:04:00,
2013-05-05 08:10:00,60.2,33.1,29.65,SSW,213,16.0,16.0,36,0.00,,,0.00,Wunderground v.1.15,2013-05-05 15:10:00,
2013-05-05 08:16:00,60.0,33.6,29.65,South,182,15.0,16.0,37,0.00,,,0.00,Wunderground v.1.15,2013-05-05 15:16:00,
2013-05-05 08:22:00,59.9,33.5,29.65,SW,222,13.0,15.0,37,0.00,,,0.00,Wunderground v.1.15,2013-05-05 15:22:00,
2013-05-05 08:28:00,60.0,33.6,29.66,SW,229,12.0,15.0,37,0.00,,,0.00,Wunderground v.1.15,2013-05-05 15:28:00,
2013-05-05 08:34:00,60.1,34.4,29.66,SW,225,11.0,13.0,38,0.00,,,0.00,Wunderground v.1.15,2013-05-05 15:34:00,
2013-05-05 08:40:00,60.5,34.7,29.66,SW,226,10.0,11.0,38,0.00,,,0.00,Wunderground v.1.15,2013-05-05 15:40:00,
2013-05-05 08:46:00,60.5,35.4,29.66,SSW,208,11.0,17.0,39,0.00,,,0.00,Wunderground v.1.15,2013-05-05 15:46:00,
2013-05-05 08:52:00,60.4,36.6,29.67,SSE,158,14.0,16.0,41,0.00,,,0.00,Wunderground v.1.15,2013-05-05 15:52:00,
2013-05-05 08:58:00,60.3,37.1,29.66,SSE,168,16.0,17.0,42,0.00,,,0.00,Wunderground v.1.15,2013-05-05 15:58:00,
2013-05-05 09:04:00,60.3,37.7,29.67,SSW,198,18.0,22.0,43,0.00,,,0.00,Wunderground v.1.15,2013-05-05 16:04:00,
2013-05-05 09:10:00,60.7,37.5,29.66,South,184,19.0,23.0,42,0.00,,,0.00,Wunderground v.1.15,2013-05-05 16:10:00,
2013-05-05 09:16:00,61.9,37.9,29.67,South,176,20.0,23.0,41,0.00,,,0.00,Wunderground v.1.15,2013-05-05 16:16:00,
2013-05-05 09:22:00,62.3,38.3,29.68,SSE,165,19.0,22.0,41,0.00,,,0.00,Wunderground v.1.15,2013-05-05 16:22:00,
2013-05-05 09:28:00,62.6,38.6,29.68,SSE,164,18.0,22.0,41,0.00,,,0.00,Wunderground v.1.15,2013-05-05 16:28:00,
2013-05-05 09:34:00,63.1,39.0,29.68,SSW,192,14.0,17.0,41,0.00,,,0.00,Wunderground v.1.15,2013-05-05 16:34:00,
2013-05-05 09:40:00,64.1,39.3,29.68,South,175,13.0,14.0,40,0.00,,,0.00,Wunderground v.1.15,2013-05-05 16:40:00,
2013-05-05 09:46:00,64.5,39.6,29.68,SSW,203,14.0,14.0,40,0.00,,,0.00,Wunderground v.1.15,2013-05-05 16:46:00,
2013-05-05 09:52:00,64.1,39.3,29.68,South,176,14.0,16.0,40,0.00,,,0.00,Wunderground v.1.15,2013-05-05 16:52:00,
2013-05-05 09:58:00,63.8,39.0,29.68,South,182,15.0,16.0,40,0.00,,,0.00,Wunderground v.1.15,2013-05-05 16:58:00,
2013-05-05 10:04:00,63.5,38.7,29.68,South,173,15.0,18.0,40,0.00,,,0.00,Wunderground v.1.15,2013-05-05 17:04:00,
2013-05-05 10:10:00,63.3,38.6,29.69,South,173,17.0,17.0,40,0.00,,,0.00,Wunderground v.1.15,2013-05-05 17:10:00,
2013-05-05 10:16:00,63.6,39.5,29.69,South,179,17.0,17.0,41,0.00,,,0.00,Wunderground v.1.15,2013-05-05 17:16:00,
2013-05-05 10:22:00,64.0,39.2,29.69,SSW,211,15.0,19.0,40,0.00,,,0.00,Wunderground v.1.15,2013-05-05 17:22:00,
2013-05-05 10:28:00,63.6,39.5,29.70,SSW,199,16.0,21.0,41,0.00,,,0.00,Wunderground v.1.15,2013-05-05 17:28:00,
2013-05-05 10:34:00,63.1,39.6,29.70,South,182,17.0,21.0,42,0.00,,,0.00,Wunderground v.1.15,2013-05-05 17:34:00,
2013-05-05 10:40:00,63.0,39.5,29.70,SSW,192,17.0,24.0,42,0.00,,,0.00,Wunderground v.1.15,2013-05-05 17:40:00,
2013-05-05 10:46:00,63.4,39.9,29.71,South,170,18.0,24.0,42,0.00,,,0.00,Wunderground v.1.15,2013-05-05 17:46:00,
2013-05-05 10:52:00,63.2,39.7,29.71,South,182,16.0,19.0,42,0.00,,,0.00,Wunderground v.1.15,2013-05-05 17:52:00,
2013-05-05 10:58:00,62.9,40.0,29.71,SW,223,13.0,19.0,43,0.00,,,0.00,Wunderground v.1.15,2013-05-05 17:58:00,
2013-05-05 11:04:00,63.0,40.7,29.71,SSE,168,10.0,13.0,44,0.00,,,0.00,Wunderground v.1.15,2013-05-05 18:04:00,
2013-05-05 11:10:00,63.9,41.0,29.72,SSE,167,7.0,7.0,43,0.00,,,0.00,Wunderground v.1.15,2013-05-05 18:10:00,
2013-05-05 11:16:00,64.5,40.9,29.71,South,175,6.0,11.0,42,0.00,,,0.00,Wunderground v.1.15,2013-05-05 18:16:00,
2013-05-05 11:22:00,64.9,39.3,29.72,SSW,206,9.0,9.0,39,0.00,,,0.00,Wunderground v.1.15,2013-05-05 18:22:00,
2013-05-05 11:28:00,65.0,39.4,29.71,SSW,192,12.0,13.0,39,0.00,,,0.00,Wunderground v.1.15,2013-05-05 18:28:00,
2013-05-05 11:34:00,65.3,39.7,29.71,SE,142,8.0,14.0,39,0.00,,,0.00,Wunderground v.1.15,2013-05-05 18:34:00,
2013-05-05 11:40:00,65.6,40.0,29.71,SSW,195,7.0,19.0,39,0.00,,,0.00,Wunderground v.1.15,2013-05-05 18:40:00,
2013-05-05 11:46:00,65.2,39.6,29.71,SSW,202,12.0,19.0,39,0.00,,,0.00,Wunderground v.1.15,2013-05-05 18:46:00,
2013-05-05 11:52:00,64.5,40.3,29.71,SSW,211,13.0,14.0,41,0.00,,,0.00,Wunderground v.1.15,2013-05-05 18:52:00,
2013-05-05 11:58:00,63.9,39.7,29.71,SSW,192,14.0,14.0,41,0.00,,,0.00,Wunderground v.1.15,2013-05-05 18:58:00,
2013-05-05 12:04:00,63.8,39.0,29.71,SSE,157,13.0,16.0,40,0.00,,,0.00,Wunderground v.1.15,2013-05-05 19:04:00,
2013-05-05 12:10:00,64.3,40.1,29.71,South,173,12.0,12.0,41,0.00,,,0.00,Wunderground v.1.15,2013-05-05 19:10:00,
2013-05-05 12:16:00,64.7,39.8,29.71,South,181,14.0,24.0,40,0.00,,,0.00,Wunderground v.1.15,2013-05-05 19:16:00,
2013-05-05 12:22:00,65.4,39.8,29.71,SSW,196,13.0,19.0,39,0.00,,,0.00,Wunderground v.1.15,2013-05-05 19:22:00,
2013-05-05 12:28:00,66.3,39.2,29.70,SSW,194,15.0,22.0,37,0.00,,,0.00,Wunderground v.1.15,2013-05-05 19:28:00,
2013-05-05 12:34:00,66.2,38.4,29.70,South,186,22.0,25.0,36,0.00,,,0.00,Wunderground v.1.15,2013-05-05 19:34:00,
2013-05-05 12:40:00,66.5,39.4,29.69,South,180,25.0,25.0,37,0.00,,,0.00,Wunderground v.1.15,2013-05-05 19:40:00,
2013-05-05 12:46:00,66.6,39.5,29.69,South,180,23.0,29.0,37,0.00,,,0.00,Wunderground v.1.15,2013-05-05 19:46:00,
2013-05-05 12:52:00,65.9,38.9,29.69,South,179,26.0,26.0,37,0.00,,,0.00,Wunderground v.1.15,2013-05-05 19:52:00,
2013-05-05 12:58:00,64.9,38.7,29.69,SSW,203,26.0,29.0,38,0.00,,,0.00,Wunderground v.1.15,2013-05-05 19:58:00,
2013-05-05 13:04:00,64.2,38.7,29.69,South,175,27.0,35.0,39,0.00,,,0.00,Wunderground v.1.15,2013-05-05 20:04:00,
2013-05-05 13:10:00,63.7,38.9,29.70,South,187,26.0,27.0,40,0.00,,,0.00,Wunderground v.1.15,2013-05-05 20:10:00,
2013-05-05 13:16:00,63.0,38.3,29.71,South,190,23.0,35.0,40,0.00,,,0.00,Wunderground v.1.15,2013-05-05 20:16:00,
2013-05-05 13:22:00,62.7,39.3,29.72,SSW,197,22.0,23.0,42,0.00,,,0.00,Wunderground v.1.15,2013-05-05 20:22:00,
2013-05-05 13:28:00,62.6,39.2,29.72,SE,146,18.0,23.0,42,0.00,,,0.00,Wunderground v.1.15,2013-05-05 20:28:00,
2013-05-05 13:34:00,62.4,39.6,29.72,South,171,18.0,33.0,43,0.00,,,0.00,Wunderground v.1.15,2013-05-05 20:34:00,
2013-05-05 13:40:00,62.4,39.6,29.71,SSW,195,21.0,24.0,43,0.00,,,0.00,Wunderground v.1.15,2013-05-05 20:40:00,
2013-05-05 13:46:00,62.9,40.0,29.71,SSW,213,21.0,28.0,43,0.00,,,0.00,Wunderground v.1.15,2013-05-05 20:46:00,
2013-05-05 13:52:00,64.0,40.4,29.71,South,188,21.0,28.0,42,0.00,,,0.00,Wunderground v.1.15,2013-05-05 20:52:00,
2013-05-05 13:58:00,64.5,40.3,29.70,SSW,207,23.0,28.0,41,0.00,,,0.00,Wunderground v.1.15,2013-05-05 20:58:00,
2013-05-05 14:04:00,65.0,40.7,29.71,SSW,200,25.0,29.0,41,0.00,,,0.00,Wunderground v.1.15,2013-05-05 21:04:00,
2013-05-05 14:10:00,65.2,40.3,29.71,SSW,201,26.0,33.0,40,0.00,,,0.00,Wunderground v.1.15,2013-05-05 21:10:00,
2013-05-05 14:16:00,65.2,40.3,29.71,SSW,194,27.0,33.0,40,0.00,,,0.00,Wunderground v.1.15,2013-05-05 21:16:00,
2013-05-05 14:22:00,65.0,40.1,29.72,SSW,192,25.0,25.0,40,0.00,,,0.00,Wunderground v.1.15,2013-05-05 21:22:00,
2013-05-05 14:28:00,64.2,40.0,29.72,South,182,25.0,28.0,41,0.00,,,0.00,Wunderground v.1.15,2013-05-05 21:28:00,
2013-05-05 14:34:00,63.7,40.2,29.72,SSW,199,24.0,24.0,42,0.00,,,0.00,Wunderground v.1.15,2013-05-05 21:34:00,
2013-05-05 14:40:00,63.7,40.8,29.73,SSW,196,20.0,20.0,43,0.00,,,0.00,Wunderground v.1.15,2013-05-05 21:40:00,
2013-05-05 14:46:00,64.0,41.0,29.74,SSW,211,16.0,20.0,43,0.00,,,0.00,Wunderground v.1.15,2013-05-05 21:46:00,
2013-05-05 14:52:00,64.3,40.7,29.73,SW,228,16.0,16.0,42,0.00,,,0.00,Wunderground v.1.15,2013-05-05 21:52:00,
2013-05-05 14:58:00,64.4,40.8,29.73,South,187,17.0,28.0,42,0.00,,,0.00,Wunderground v.1.15,2013-05-05 21:58:00,
2013-05-05 15:04:00,64.2,40.6,29.72,SSW,206,19.0,19.0,42,0.00,,,0.00,Wunderground v.1.15,2013-05-05 22:04:00,
2013-05-05 15:10:00,64.5,40.9,29.73,SSW,196,17.0,21.0,42,0.00,,,0.00,Wunderground v.1.15,2013-05-05 22:10:00,
2013-05-05 15:16:00,64.3,40.7,29.73,SSW,200,18.0,21.0,42,0.00,,,0.00,Wunderground v.1.15,2013-05-05 22:16:00,
2013-05-05 15:22:00,64.7,41.1,29.73,SSW,194,18.0,21.0,42,0.00,,,0.00,Wunderground v.1.15,2013-05-05 22:22:00,
2013-05-05 15:28:00,64.9,41.2,29.72,SW,214,18.0,23.0,42,0.00,,,0.00,Wunderground v.1.15,2013-05-05 22:28:00,
2013-05-05 15:34:00,65.2,40.9,29.72,SSW,202,17.0,25.0,41,0.00,,,0.00,Wunderground v.1.15,2013-05-05 22:34:00,
2013-05-05 15:40:00,64.8,40.5,29.72,SW,227,19.0,19.0,41,0.00,,,0.00,Wunderground v.1.15,2013-05-05 22:40:00,
2013-05-05 15:46:00,64.5,40.9,29.72,SSW,209,20.0,21.0,42,0.00,,,0.00,Wunderground v.1.15,2013-05-05 22:46:00,
2013-05-05 15:52:00,64.3,40.7,29.72,SW,214,19.0,22.0,42,0.00,,,0.00,Wunderground v.1.15,2013-05-05 22:52:00,
2013-05-05 15:58:00,64.2,40.6,29.71,South,178,19.0,22.0,42,0.00,,,0.00,Wunderground v.1.15,2013-05-05 22:58:00,
2013-05-05 16:04:00,63.9,40.3,29.71,SSW,213,20.0,24.0,42,0.00,,,0.00,Wunderground v.1.15,2013-05-05 23:04:00,
2013-05-05 16:10:00,64.1,40.5,29.72,SSW,205,19.0,19.0,42,0.00,,,0.00,Wunderground v.1.15,2013-05-05 23:10:00,
2013-05-05 16:16:00,64.3,40.7,29.72,SSW,213,18.0,19.0,42,0.00,,,0.00,Wunderground v.1.15,2013-05-05 23:16:00,
2013-05-05 16:22:00,64.1,40.5,29.71,SSW,210,19.0,19.0,42,0.00,,,0.00,Wunderground v.1.15,2013-05-05 23:22:00,
2013-05-05 16:28:00,63.6,40.1,29.70,SSW,198,24.0,32.0,42,0.00,,,0.00,Wunderground v.1.15,2013-05-05 23:28:00,
2013-05-05 16:34:00,63.2,40.3,29.70,South,191,25.0,26.0,43,0.00,,,0.00,Wunderground v.1.15,2013-05-05 23:34:00,
2013-05-05 16:40:00,62.9,40.0,29.71,SSW,198,25.0,25.0,43,0.00,,,0.00,Wunderground v.1.15,2013-05-05 23:40:00,
2013-05-05 16:46:00,62.9,40.0,29.72,SW,219,23.0,25.0,43,0.00,,,0.00,Wunderground v.1.15,2013-05-05 23:46:00,
2013-05-05 16:52:00,63.1,40.2,29.72,South,187,18.0,19.0,43,0.00,,,0.00,Wunderground v.1.15,2013-05-05 23:52:00,
2013-05-05 16:58:00,63.6,40.7,29.72,SSW,196,13.0,20.0,43,0.00,,,0.00,Wunderground v.1.15,2013-05-05 23:58:00,
2013-05-05 17:04:00,63.9,40.3,29.73,SSW,210,11.0,15.0,42,0.00,,,0.00,Wunderground v.1.15,2013-05-06 00:04:00,
2013-05-05 17:10:00,64.1,40.5,29.72,South,178,12.0,12.0,42,0.00,,,0.00,Wunderground v.1.15,2013-05-06 00:10:00,
2013-05-05 17:16:00,64.2,40.0,29.72,SSW,208,15.0,15.0,41,0.00,,,0.00,Wunderground v.1.15,2013-05-06 00:16:00,
2013-05-05 17:22:00,64.0,39.8,29.72,SW,236,14.0,18.0,41,0.00,,,0.00,Wunderground v.1.15,2013-05-06 00:22:00,
2013-05-05 17:28:00,63.9,40.3,29.72,SW,221,13.0,18.0,42,0.00,,,0.00,Wunderground v.1.15,2013-05-06 00:28:00,
2013-05-05 17:34:00,63.8,40.3,29.72,SW,229,11.0,15.0,42,0.00,,,0.00,Wunderground v.1.15,2013-05-06 00:34:00,
2013-05-05 17:40:00,63.6,40.1,29.73,SSW,196,11.0,13.0,42,0.00,,,0.00,Wunderground v.1.15,2013-05-06 00:40:00,
2013-05-05 17:46:00,63.4,39.9,29.72,SSW,205,10.0,16.0,42,0.00,,,0.00,Wunderground v.1.15,2013-05-06 00:46:00,
2013-05-05 17:52:00,63.3,40.4,29.72,SW,227,9.0,9.0,43,0.00,,,0.00,Wunderground v.1.15,2013-05-06 00:52:00,
2013-05-05 17:58:00,63.1,40.2,29.72,West,265,7.0,11.0,43,0.00,,,0.00,Wunderground v.1.15,2013-05-06 00:58:00,
2013-05-05 18:04:00,63.0,40.1,29.72,WSW,239,6.0,9.0,43,0.00,,,0.00,Wunderground v.1.15,2013-05-06 01:04:00,
2013-05-05 18:10:00,62.9,40.0,29.73,SW,220,4.0,4.0,43,0.00,,,0.00,Wunderground v.1.15,2013-05-06 01:10:00,
2013-05-05 18:16:00,62.8,40.0,29.73,SSW,208,7.0,13.0,43,0.00,,,0.00,Wunderground v.1.15,2013-05-06 01:16:00,
2013-05-05 18:22:00,62.5,39.7,29.73,SW,232,9.0,16.0,43,0.00,,,0.00,Wunderground v.1.15,2013-05-06 01:22:00,
2013-05-05 18:28:00,62.2,39.4,29.73,SW,223,9.0,17.0,43,0.00,,,0.00,Wunderground v.1.15,2013-05-06 01:28:00,
2013-05-05 18:34:00,62.1,39.9,29.73,SW,233,8.0,11.0,44,0.00,,,0.00,Wunderground v.1.15,2013-05-06 01:34:00,
2013-05-05 18:40:00,61.8,39.6,29.73,SW,235,9.0,15.0,44,0.00,,,0.00,Wunderground v.1.15,2013-05-06 01:40:00,
2013-05-05 18:46:00,61.6,39.5,29.73,SW,218,10.0,15.0,44,0.00,,,0.00,Wunderground v.1.15,2013-05-06 01:46:00,
2013-05-05 18:52:00,61.3,39.2,29.73,SW,236,10.0,12.0,44,0.00,,,0.00,Wunderground v.1.15,2013-05-06 01:52:00,
2013-05-05 18:58:00,61.0,39.5,29.73,SW,229,12.0,17.0,45,0.00,,,0.00,Wunderground v.1.15,2013-05-06 01:58:00,
2013-05-05 19:04:00,60.8,39.3,29.73,WSW,238,13.0,20.0,45,0.00,,,0.00,Wunderground v.1.15,2013-05-06 02:04:00,
2013-05-05 19:10:00,60.7,39.8,29.73,SW,215,13.0,13.0,46,0.00,,,0.00,Wunderground v.1.15,2013-05-06 02:10:00,
2013-05-05 19:16:00,60.5,39.6,29.73,SW,221,13.0,14.0,46,0.00,,,0.00,Wunderground v.1.15,2013-05-06 02:16:00,
2013-05-05 19:22:00,60.4,39.5,29.73,SW,221,15.0,18.0,46,0.00,,,0.00,Wunderground v.1.15,2013-05-06 02:22:00,
2013-05-05 19:28:00,60.2,39.3,29.74,SSW,213,16.0,18.0,46,0.00,,,0.00,Wunderground v.1.15,2013-05-06 02:28:00,
2013-05-05 19:34:00,59.9,39.6,29.74,SSW,213,17.0,23.0,47,0.00,,,0.00,Wunderground v.1.15,2013-05-06 02:34:00,
2013-05-05 19:40:00,59.5,39.2,29.74,South,188,16.0,18.0,47,0.00,,,0.00,Wunderground v.1.15,2013-05-06 02:40:00,
2013-05-05 19:46:00,59.0,39.3,29.74,SW,226,16.0,18.0,48,0.00,,,0.00,Wunderground v.1.15,2013-05-06 02:46:00,
2013-05-05 19:52:00,59.0,39.3,29.74,SSW,209,17.0,19.0,48,0.00,,,0.00,Wunderground v.1.15,2013-05-06 02:52:00,
2013-05-05 19:58:00,58.6,39.5,29.75,SW,219,16.0,19.0,49,0.00,,,0.00,Wunderground v.1.15,2013-05-06 02:58:00,
2013-05-05 20:04:00,58.4,39.3,29.75,SSW,209,14.0,17.0,49,0.00,,,0.00,Wunderground v.1.15,2013-05-06 03:04:00,
2013-05-05 20:10:00,58.1,39.5,29.75,SSW,194,15.0,21.0,50,0.00,,,0.00,Wunderground v.1.15,2013-05-06 03:10:00,
2013-05-05 20:16:00,57.7,39.2,29.76,SSW,199,15.0,21.0,50,0.00,,,0.00,Wunderground v.1.15,2013-05-06 03:16:00,
2013-05-05 20:22:00,57.2,39.2,29.76,SSW,205,16.0,16.0,51,0.00,,,0.00,Wunderground v.1.15,2013-05-06 03:22:00,
2013-05-05 20:28:00,57.0,38.5,29.76,SSW,195,17.0,26.0,50,0.00,,,0.00,Wunderground v.1.15,2013-05-06 03:28:00,
2013-05-05 20:34:00,56.7,38.3,29.76,SSW,209,18.0,26.0,50,0.00,,,0.00,Wunderground v.1.15,2013-05-06 03:34:00,
2013-05-05 20:40:00,56.5,38.1,29.76,SSW,195,16.0,16.0,50,0.00,,,0.00,Wunderground v.1.15,2013-05-06 03:40:00,
2013-05-05 20:46:00,56.3,38.4,29.76,South,184,16.0,28.0,51,0.00,,,0.00,Wunderground v.1.15,2013-05-06 03:46:00,
2013-05-05 20:52:00,56.0,38.6,29.76,SW,218,16.0,16.0,52,0.00,,,0.00,Wunderground v.1.15,2013-05-06 03:52:00,
2013-05-05 20:58:00,55.9,38.5,29.76,SW,214,16.0,21.0,52,0.00,,,0.00,Wunderground v.1.15,2013-05-06 03:58:00,
2013-05-05 21:02:00,55.8,38.4,29.76,SSW,205,16.0,20.0,52,0.00,,,0.00,Wunderground v.1.15,2013-05-06 04:02:00,
2013-05-05 21:04:00,55.7,38.3,29.76,SSW,194,16.0,25.0,52,0.00,,,0.00,Wunderground v.1.15,2013-05-06 04:04:00,
2013-05-05 21:06:00,55.7,38.3,29.76,SSW,195,18.0,25.0,52,0.00,,,0.00,Wunderground v.1.15,2013-05-06 04:06:00,
2013-05-05 21:08:00,55.7,38.8,29.76,SSW,192,19.0,25.0,53,0.00,,,0.00,Wunderground v.1.15,2013-05-06 04:08:00,
2013-05-05 21:14:00,55.7,38.8,29.76,SSW,203,23.0,27.0,53,0.00,,,0.00,Wunderground v.1.15,2013-05-06 04:14:00,
2013-05-05 21:16:00,55.7,38.8,29.75,SSW,207,23.0,27.0,53,0.00,,,0.00,Wunderground v.1.15,2013-05-06 04:16:00,
2013-05-05 21:22:00,55.6,38.7,29.76,SSW,192,24.0,33.0,53,0.00,,,0.00,Wunderground v.1.15,2013-05-06 04:22:00,
2013-05-05 21:28:00,55.5,38.6,29.76,South,186,25.0,33.0,53,0.00,,,0.00,Wunderground v.1.15,2013-05-06 04:28:00,
2013-05-05 21:34:00,55.4,39.0,29.77,SSW,201,26.0,30.0,54,0.00,,,0.00,Wunderground v.1.15,2013-05-06 04:34:00,
2013-05-05 21:40:00,55.3,38.9,29.77,SSW,204,25.0,25.0,54,0.00,,,0.00,Wunderground v.1.15,2013-05-06 04:40:00,
2013-05-05 21:46:00,55.3,39.4,29.78,SSW,200,23.0,26.0,55,0.00,,,0.00,Wunderground v.1.15,2013-05-06 04:46:00,
2013-05-05 21:52:00,55.2,39.3,29.78,SSW,203,22.0,26.0,55,0.00,,,0.00,Wunderground v.1.15,2013-05-06 04:52:00,
2013-05-05 21:58:00,55.1,39.7,29.78,South,190,21.0,26.0,56,0.00,,,0.00,Wunderground v.1.15,2013-05-06 04:58:00,
2013-05-05 22:04:00,55.1,39.7,29.78,SSW,211,17.0,21.0,56,0.00,,,0.00,Wunderground v.1.15,2013-05-06 05:04:00,
2013-05-05 22:10:00,55.0,40.0,29.78,SSW,205,16.0,22.0,57,0.00,,,0.00,Wunderground v.1.15,2013-05-06 05:10:00,
2013-05-05 22:16:00,55.0,40.0,29.78,SSW,211,15.0,23.0,57,0.00,,,0.00,Wunderground v.1.15,2013-05-06 05:16:00,
2013-05-05 22:22:00,54.8,40.3,29.79,SW,229,14.0,14.0,58,0.00,,,0.00,Wunderground v.1.15,2013-05-06 05:22:00,
2013-05-05 22:28:00,54.7,40.2,29.79,SW,228,14.0,15.0,58,0.00,,,0.00,Wunderground v.1.15,2013-05-06 05:28:00,
2013-05-05 22:34:00,54.6,40.1,29.79,SSW,192,12.0,18.0,58,0.00,,,0.00,Wunderground v.1.15,2013-05-06 05:34:00,
2013-05-05 22:40:00,54.5,40.0,29.78,SSW,198,15.0,15.0,58,0.00,,,0.00,Wunderground v.1.15,2013-05-06 05:40:00,
2013-05-05 22:46:00,54.4,40.4,29.79,SSW,192,16.0,16.0,59,0.00,,,0.00,Wunderground v.1.15,2013-05-06 05:46:00,
2013-05-05 22:52:00,54.2,40.2,29.79,SW,214,15.0,18.0,59,0.00,,,0.00,Wunderground v.1.15,2013-05-06 05:52:00,
2013-05-05 22:58:00,54.2,40.2,29.79,SSW,209,16.0,19.0,59,0.00,,,0.00,Wunderground v.1.15,2013-05-06 05:58:00,
2013-05-05 23:04:00,54.1,40.1,29.79,SW,215,15.0,20.0,59,0.00,,,0.00,Wunderground v.1.15,2013-05-06 06:04:00,
2013-05-05 23:10:00,54.0,40.0,29.79,SW,223,16.0,16.0,59,0.00,,,0.00,Wunderground v.1.15,2013-05-06 06:10:00,
2013-05-05 23:16:00,53.9,39.9,29.79,SSW,209,15.0,16.0,59,0.00,,,0.00,Wunderground v.1.15,2013-05-06 06:16:00,
2013-05-05 23:22:00,53.7,40.1,29.79,SSW,212,14.0,19.0,60,0.00,,,0.00,Wunderground v.1.15,2013-05-06 06:22:00,
2013-05-05 23:28:00,53.6,40.0,29.79,SSW,198,16.0,19.0,60,0.00,,,0.00,Wunderground v.1.15,2013-05-06 06:28:00,
2013-05-05 23:34:00,53.5,39.9,29.79,SSW,212,17.0,17.0,60,0.00,,,0.00,Wunderground v.1.15,2013-05-06 06:34:00,
2013-05-05 23:40:00,53.4,39.9,29.80,SSW,200,15.0,17.0,60,0.00,,,0.00,Wunderground v.1.15,2013-05-06 06:40:00,
2013-05-05 23:46:00,53.5,39.5,29.80,SSW,205,13.0,17.0,59,0.00,,,0.00,Wunderground v.1.15,2013-05-06 06:46:00,
2013-05-05 23:52:00,53.5,39.5,29.81,SW,232,8.0,10.0,59,0.00,,,0.00,Wunderground v.1.15,2013-05-06 06:52:00,
2013-05-05 23:58:00,53.5,39.5,29.81,SW,232,2.0,10.0,59,0.00,,,0.00,Wunderground v.1.15,2013-05-06 06:58:00,